This is the latest recevied weather packets stored in our database for station/object K0SNA. If no packets are shown the sender has not sent any weather packets the latest 10 day(s).
| Time | Temp. | Humidity | Pressure | Rain* | Wind** | Luminosity | Snow |
|---|---|---|---|---|---|---|---|
| 1777845751 | 21.67° C | 25% | 1005.2 hPa | 0 mm | - | 336 W/m² | - |
| 1777845447 | 21.11° C | 26% | 1005.4 hPa | 0 mm | - | 382 W/m² | - |
| 1777845145 | 21.11° C | 24% | 1005.7 hPa | 0 mm | - | 393 W/m² | - |
| 1777844843 | 21.11° C | 26% | 1005.2 hPa | 0 mm | - | 406 W/m² | - |
| 1777844539 | 21.11° C | 26% | 1005.6 hPa | 0 mm | - | 419 W/m² | - |
| 1777844237 | 21.67° C | 26% | 1005.6 hPa | 0 mm | - | 431 W/m² | - |
| 1777843934 | 21.11° C | 27% | 1005.6 hPa | 0 mm | - | 445 W/m² | - |
| 1777843631 | 21.67° C | 27% | 1005.7 hPa | 0 mm | - | 455 W/m² | - |
| 1777843329 | 21.67° C | 28% | 1005.6 hPa | 0 mm | - | 467 W/m² | - |
| 1777843026 | 21.67° C | 27% | 1005.8 hPa | 0 mm | - | 478 W/m² | - |
| 1777842722 | 21.67° C | 27% | 1005.9 hPa | 0 mm | - | 490 W/m² | - |
| 1777842418 | 21.11° C | 29% | 1005.8 hPa | 0 mm | - | 500 W/m² | - |
| 1777842115 | 21.11° C | 28% | 1005.8 hPa | 0 mm | - | 511 W/m² | - |
| 1777841810 | 21.67° C | 28% | 1005.8 hPa | 0 mm | - | 524 W/m² | - |
| 1777841507 | 21.67° C | 27% | 1005.9 hPa | 0 mm | - | 531 W/m² | - |
| 1777841204 | 21.67° C | 29% | 1005.9 hPa | 0 mm | - | 541 W/m² | - |
| 1777840901 | 21.11° C | 28% | 1005.9 hPa | 0 mm | - | 551 W/m² | - |
| 1777840598 | 21.11° C | 29% | 1006.2 hPa | 0 mm | - | 562 W/m² | - |
| 1777840296 | 21.11° C | 29% | 1005.9 hPa | 0 mm | - | 569 W/m² | - |
| 1777839993 | 21.67° C | 29% | 1006.3 hPa | 0 mm | - | 580 W/m² | - |
| 1777839691 | 21.11° C | 30% | 1006 hPa | 0 mm | - | 590 W/m² | - |
| 1777839389 | 21.11° C | 29% | 1006.2 hPa | 0 mm | - | 601 W/m² | - |
| 1777839086 | 21.11° C | 29% | 1006.2 hPa | 0 mm | - | 604 W/m² | - |
| 1777838782 | 21.11° C | 28% | 1006.4 hPa | 0 mm | - | 615 W/m² | - |
| 1777838479 | 21.67° C | 28% | 1006.3 hPa | 0 mm | - | 622 W/m² | - |
* Rain latest hour (hover to see other rain measurements)
** Current wind speed in m/s (hover to see current wind gust speed)